| time (UTC) | temp C | wind direction | speed KPH | gust KPH | rain 1hr cm | rain 24hr cm | rain mn cm | humidity % | barometer mb |
| 20260502163016 | 11 | 68 | 1.6 | 4.8 | 0.00 | 0.56 | 0.56 | 63 | 1012.2 |
| 20260502123015 | 9 | 0.0 | 1.6 | 0.00 | 0.56 | 0.56 | 80 | 1012.1 | |
| 20260502113017 | 8 | 0.0 | 0.0 | 0.00 | 0.56 | 0.56 | 81 | 1012.2 | |
| 20260502110058 | 8 | 0.0 | 0.0 | 0.00 | 0.56 | 0.56 | 81 | 1011.9 | |
| 20260502103018 | 8 | 0.0 | 1.6 | 0.00 | 0.56 | 0.56 | 80 | 1011.8 | |
| 20260502070016 | 8 | 0.0 | 1.6 | 0.18 | 0.28 | 0.28 | 72 | 1012.2 | |
| 20260502063018 | 8 | 0.0 | 1.6 | 0.03 | 0.13 | 0.13 | 70 | 1012.3 | |
| 20260502060016 | 8 | 0.0 | 1.6 | 0.08 | 0.10 | 0.10 | 69 | 1011.9 | |
| 20260502053017 | 8 | 0.0 | 3.2 | 0.10 | 0.10 | 0.10 | 68 | 1011.9 | |
| 20260502050016 | 10 | 0.0 | 3.2 | 0.03 | 0.03 | 0.03 | 65 | 1011.9 | |
| 20260502043016 | 10 | 0.0 | 1.6 | 0.00 | 0.00 | 0.00 | 60 | 1012.0 | |
| 20260502040016 | 11 | 0.0 | 0.0 | 0.00 | 0.00 | 0.00 | 55 | 1011.8 | |
| 20260502033017 | 11 | 0.0 | 0.0 | 0.00 | 0.00 | 0.00 | 55 | 1011.5 | |
| 20260502030016 | 11 | 0.0 | 0.0 | 0.00 | 0.00 | 0.00 | 52 | 1011.7 | |
| 20260502023018 | 11 | 0.0 | 0.0 | 0.00 | 0.00 | 0.00 | 51 | 1011.5 | |
| 20260502020016 | 11 | 0.0 | 0.0 | 0.00 | 0.00 | 0.00 | 47 | 1011.5 | |
| 20260502013016 | 12 | 0.0 | 0.0 | 0.00 | 0.00 | 0.00 | 47 | 1011.5 | |
| 20260502010016 | 12 | 0.0 | 0.0 | 0.00 | 0.00 | 0.00 | 45 | 1011.5 | |
| 20260502003039 | 13 | 0.0 | 3.2 | 0.00 | 0.00 | 0.00 | 40 | 1011.1 | |
| 20260502000016 | 14 | 0.0 | 4.8 | 0.00 | 0.00 | 0.00 | 36 | 1010.8 | |
| 20260501233016 | 15 | 0.0 | 6.4 | 0.00 | 0.00 | 0.00 | 35 | 1010.4 | |
| 20260501230016 | 16 | 225 | 1.6 | 11.3 | 0.00 | 0.00 | 0.00 | 31 | 1009.9 |
| 20260501223016 | 16 | 0.0 | 6.4 | 0.00 | 0.00 | 0.00 | 30 | 1009.6 | |
| 20260501220016 | 16 | 0.0 | 8.0 | 0.00 | 0.00 | 0.00 | 27 | 1009.6 | |
| 20260501213016 | 17 | 225 | 1.6 | 9.7 | 0.00 | 0.00 | 0.00 | 26 | 1009.2 |
| 20260501210017 | 17 | 293 | 1.6 | 8.0 | 0.00 | 0.00 | 0.00 | 25 | 1009.2 |
| 20260501203036 | 17 | 225 | 1.6 | 8.0 | 0.00 | 0.05 | 0.00 | 25 | 1009.5 |
| 20260501200015 | 17 | 248 | 1.6 | 9.7 | 0.00 | 0.05 | 0.00 | 26 | 1009.6 |
| 20260501193036 | 17 | 315 | 1.6 | 11.3 | 0.00 | 0.05 | 0.00 | 24 | 1009.7 |
| 20260501190036 | 18 | 68 | 1.6 | 8.0 | 0.00 | 0.08 | 0.00 | 23 | 1010.0 |
| 20260501183015 | 18 | 158 | 3.2 | 11.3 | 0.00 | 0.10 | 0.00 | 25 | 1010.4 |
| 20260501180015 | 18 | 68 | 1.6 | 6.4 | 0.00 | 0.10 | 0.00 | 26 | 1010.5 |
| 20260501173035 | 17 | 225 | 1.6 | 9.7 | 0.00 | 0.10 | 0.00 | 29 | 1011.0 |